K7LDN-13 Weather Reports


Display with metric or nautical units.
time (UTC)temp
F
wind
direction
speed
MPH
gust
MPH
rain 1hr
in
rain 24hr
in
rain mn
in
humidity
%
barometer
mb
20260502130359 50 146 8.0 16.0 0.00 0.00 0.00 48 1023.6
20260502123342 48 144 11.0 12.0 0.00 0.00 0.00 58 1023.5
20260502122839 48 165 6.0 13.0 0.00 0.00 0.00 58 1023.5
20260502122334 49 154 5.0 12.0 0.00 0.00 0.00 57 1023.5
20260502121833 49 149 13.0 15.0 0.00 0.00 0.00 56 1023.5
20260502121330 49 128 7.0 13.0 0.00 0.00 0.00 57 1023.4
20260502120827 49 150 10.0 14.0 0.00 0.00 0.00 57 1023.5
20260502120323 49 154 4.0 13.0 0.00 0.00 0.00 57 1023.4
20260502115821 49 155 8.0 15.0 0.00 0.00 0.00 58 1023.3
20260502115318 49 132 5.0 10.0 0.00 0.00 0.00 59 1023.4
20260502114814 49 128 5.0 13.0 0.00 0.00 0.00 59 1023.4
20260502114311 49 142 6.0 13.0 0.00 0.00 0.00 60 1023.5
20260502113808 49 151 4.0 14.0 0.00 0.00 0.00 60 1023.3
20260502113306 50 154 5.0 14.0 0.00 0.00 0.00 60 1023.4
20260502112804 50 144 8.0 11.0 0.00 0.00 0.00 61 1023.2
20260502112301 50 134 9.0 13.0 0.00 0.00 0.00 62 1023.2
20260502111758 50 143 7.0 12.0 0.00 0.00 0.00 62 1023.3
20260502111255 50 122 10.0 14.0 0.00 0.00 0.00 62 1023.5
20260502110753 50 152 7.0 12.0 0.00 0.00 0.00 61 1023.4
20260502110251 50 167 6.0 17.0 0.00 0.00 0.00 61 1023.5
20260502105749 50 144 8.0 17.0 0.00 0.00 0.00 60 1023.5
20260502105244 50 145 10.0 13.0 0.00 0.00 0.00 59 1023.5
20260502104742 50 146 7.0 9.0 0.00 0.00 0.00 58 1023.5
20260502104240 50 162 8.0 9.0 0.00 0.00 0.00 56 1023.5
20260502103737 50 127 4.0 10.0 0.00 0.00 0.00 54 1023.5
20260502103234 51 155 6.0 13.0 0.00 0.00 0.00 52 1023.4
20260502102731 51 152 4.0 13.0 0.00 0.00 0.00 52 1023.4
20260502102228 51 142 5.0 11.0 0.00 0.00 0.00 52 1023.3
20260502101726 51 134 5.0 11.0 0.00 0.00 0.00 51 1023.3
20260502101224 51 125 5.0 15.0 0.00 0.00 0.00 50 1023.5
20260502100722 52 147 14.0 15.0 0.00 0.00 0.00 50 1023.4
20260502100220 52 163 5.0 13.0 0.00 0.00 0.00 50 1023.2
20260502091154 47 149 2.0 3.0 0.00 0.00 0.00 49 1023.0
20260502090651 47 126 1.0 3.0 0.00 0.00 0.00 49 1023.0
20260502090148 47 206 2.0 3.0 0.00 0.00 0.00 48 1023.2
20260502071044 48 47 1.0 3.0 0.00 0.00 0.00 49 1023.5
20260502070542 49 352 0.0 1.0 0.00 0.00 0.00 46 1023.5
20260502070039 49 293 0.0 2.0 0.00 0.00 0.00 46 1023.3
20260502065538 49 260 0.0 3.0 0.00 0.00 0.00 47 1023.4
20260502065035 49 358 1.0 3.0 0.00 0.00 0.00 47 1023.4
20260502064533 49 309 2.0 3.0 0.00 0.00 0.00 46 1023.2
20260502064030 49 254 2.0 4.0 0.00 0.00 0.00 47 1023.5
20260502063528 49 283 2.0 4.0 0.00 0.00 0.00 46 1023.3
20260502063025 49 352 0.0 3.0 0.00 0.00 0.00 45 1023.3
20260502062522 50 246 0.0 2.0 0.00 0.00 0.00 45 1023.5
20260502062021 50 212 1.0 2.0 0.00 0.00 0.00 45 1023.4
20260502061518 50 260 0.0 3.0 0.00 0.00 0.00 44 1023.3
20260502061015 50 218 0.0 3.0 0.00 0.00 0.00 44 1023.2
20260502060510 50 246 0.0 1.0 0.00 0.00 0.00 44 1023.3
20260502060007 51 267 0.0 3.0 0.00 0.00 0.00 43 1023.2
20260502055504 51 285 1.0 2.0 0.00 0.00 0.00 42 1023.0
20260502055004 51 346 0.0 2.0 0.00 0.00 0.00 42 1023.3
20260502054502 51 318 1.0 3.0 0.00 0.00 0.00 42 1023.4
20260502053958 51 341 2.0 3.0 0.00 0.00 0.00 43 1023.0
20260502053455 51 339 2.0 3.0 0.00 0.00 0.00 42 1023.3
20260502052953 51 321 0.0 2.0 0.00 0.00 0.00 41 1023.2
20260502052451 51 21 0.0 2.0 0.00 0.00 0.00 41 1023.3
20260502051949 52 32 0.0 2.0 0.00 0.00 0.00 41 1023.2
20260502051447 52 309 3.0 4.0 0.00 0.00 0.00 40 1023.0
20260502050944 53 4 2.0 4.0 0.00 0.00 0.00 40 1023.0
20260502050440 53 295 3.0 3.0 0.00 0.00 0.00 39 1023.3
20260502045937 53 318 3.0 3.0 0.00 0.00 0.00 38 1023.3
20260502045434 53 297 3.0 5.0 0.00 0.00 0.00 38 1023.2
20260502044931 53 14 0.0 3.0 0.00 0.00 0.00 38 1023.2
20260502044427 53 269 3.0 4.0 0.00 0.00 0.00 38 1023.2
20260502043924 54 339 1.0 5.0 0.00 0.00 0.00 38 1023.0
20260502043422 53 332 1.0 3.0 0.00 0.00 0.00 39 1022.9
20260502042921 53 331 2.0 3.0 0.00 0.00 0.00 39 1023.2
20260502042419 54 339 0.0 3.0 0.00 0.00 0.00 38 1023.3
20260502041915 54 305 0.0 2.0 0.00 0.00 0.00 38 1023.0
20260502041414 55 305 0.0 2.0 0.00 0.00 0.00 36 1023.0
20260502040910 55 16 2.0 5.0 0.00 0.00 0.00 37 1022.9
20260502040407 55 51 3.0 4.0 0.00 0.00 0.00 36 1023.0
20260502035903 55 9 5.0 7.0 0.00 0.00 0.00 36 1022.9
20260502035400 54 36 4.0 7.0 0.00 0.00 0.00 38 1022.9
20260502034857 55 34 3.0 4.0 0.00 0.00 0.00 38 1022.6
20260502034356 55 313 3.0 6.0 0.00 0.00 0.00 36 1022.6
20260502033854 56 336 3.0 6.0 0.00 0.00 0.00 36 1022.6
20260502033351 56 280 3.0 5.0 0.00 0.00 0.00 35 1022.5
20260502032847 56 309 4.0 7.0 0.00 0.00 0.00 35 1022.6
20260502032343 57 330 3.0 7.0 0.00 0.00 0.00 34 1022.4
20260502031841 57 334 1.0 5.0 0.00 0.00 0.00 33 1022.4
20260502031340 57 324 1.0 4.0 0.00 0.00 0.00 33 1022.2
20260502030837 57 306 1.0 5.0 0.00 0.00 0.00 32 1022.2
20260502030336 58 15 2.0 4.0 0.00 0.00 0.00 31 1021.9
20260502025832 59 358 2.0 4.0 0.00 0.00 0.00 30 1022.0
20260502025330 59 294 4.0 5.0 0.00 0.00 0.00 30 1021.7
20260502024828 59 0 2.0 6.0 0.00 0.00 0.00 30 1022.0
20260502024325 59 356 3.0 5.0 0.00 0.00 0.00 29 1021.9
20260502023823 60 1 2.0 5.0 0.00 0.00 0.00 28 1021.9
20260502023321 60 352 3.0 7.0 0.00 0.00 0.00 28 1021.7
20260502022818 60 357 8.0 8.0 0.00 0.00 0.00 28 1021.7
20260502022315 60 342 4.0 8.0 0.00 0.00 0.00 28 1021.7
20260502021811 60 342 5.0 11.0 0.00 0.00 0.00 28 1021.9
20260502021309 61 3 3.0 11.0 0.00 0.00 0.00 28 1021.7
20260502020806 61 345 6.0 9.0 0.00 0.00 0.00 28 1021.6
20260502020303 61 351 4.0 11.0 0.00 0.00 0.00 27 1021.7
20260502015800 62 3 6.0 11.0 0.00 0.00 0.00 27 1021.6
20260502015256 62 8 2.0 13.0 0.00 0.00 0.00 27 1021.6
20260502014755 63 24 5.0 9.0 0.00 0.00 0.00 26 1021.4
20260502014251 63 18 4.0 14.0 0.00 0.00 0.00 26 1021.4
20260502013747 63 11 11.0 14.0 0.00 0.00 0.00 25 1021.2
20260502013243 63 19 4.0 17.0 0.00 0.00 0.00 26 1021.3
20260502012740 64 6 4.0 12.0 0.00 0.00 0.00 27 1021.3
20260502012238 64 1 14.0 17.0 0.00 0.00 0.00 26 1021.3
20260502011735 64 11 3.0 14.0 0.00 0.00 0.00 27 1021.3
20260502011231 64 4 5.0 13.0 0.00 0.00 0.00 26 1021.2
20260502010729 64 1 3.0 15.0 0.00 0.00 0.00 26 1021.2
20260502010224 65 7 6.0 14.0 0.00 0.00 0.00 25 1021.6
20260502005722 65 18 5.0 13.0 0.00 0.00 0.00 25 1021.2
20260502005220 65 15 4.0 12.0 0.00 0.00 0.00 25 1021.4
20260502004716 64 22 11.0 17.0 0.00 0.00 0.00 25 1021.3
20260502004212 65 350 4.0 15.0 0.00 0.00 0.00 25 1021.6
20260502003710 65 358 5.0 15.0 0.00 0.00 0.00 25 1021.6
20260502003208 64 348 14.0 16.0 0.00 0.00 0.00 25 1021.2
20260502002703 65 10 10.0 15.0 0.00 0.00 0.00 24 1021.6
20260502002201 66 4 9.0 11.0 0.00 0.00 0.00 25 1021.6
20260502001658 65 354 3.0 14.0 0.00 0.00 0.00 25 1021.6
20260502001155 65 10 8.0 16.0 0.00 0.00 0.00 24 1021.6
20260502000653 65 314 4.0 15.0 0.00 0.00 0.00 24 1021.7
20260502000151 65 333 9.0 20.0 0.00 0.00 0.00 25 1021.8
20260501235646 65 332 10.0 15.0 0.00 0.00 0.00 25 1021.7
20260501235143 66 317 14.0 14.0 0.00 0.00 0.00 24 1021.6
20260501234638 66 343 11.0 14.0 0.00 0.00 0.00 24 1021.4
20260501234136 65 341 2.0 15.0 0.00 0.00 0.00 25 1021.7
20260501233633 66 0 8.0 18.0 0.00 0.00 0.00 23 1021.6
20260501233131 65 33 8.0 20.0 0.00 0.00 0.00 23 1021.7
20260501232627 66 303 11.0 19.0 0.00 0.00 0.00 24 1021.7
20260501232124 66 313 11.0 13.0 0.00 0.00 0.00 23 1021.7
20260501231622 66 330 5.0 17.0 0.00 0.00 0.00 25 1021.7
20260501231120 65 2 12.0 18.0 0.00 0.00 0.00 23 1021.6
20260501230618 65 15 5.0 15.0 0.00 0.00 0.00 23 1021.7
20260501230116 66 6 7.0 15.0 0.00 0.00 0.00 22 1021.8
20260501225613 66 15 7.0 13.0 0.00 0.00 0.00 24 1021.8
20260501225109 66 56 4.0 11.0 0.00 0.00 0.00 23 1021.6
20260501224607 65 22 5.0 20.0 0.00 0.00 0.00 22 1021.8
20260501224103 66 4 11.0 12.0 0.00 0.00 0.00 22 1021.9
20260501223600 65 355 3.0 9.0 0.00 0.00 0.00 23 1021.8
20260501223056 66 0 5.0 14.0 0.00 0.00 0.00 23 1021.7
20260501222553 66 355 10.0 16.0 0.00 0.00 0.00 21 1021.9
20260501222050 66 349 5.0 13.0 0.00 0.00 0.00 21 1021.6
20260501221546 66 7 8.0 16.0 0.00 0.00 0.00 22 1021.9
20260501221044 66 15 7.0 14.0 0.00 0.00 0.00 23 1021.9
20260501220542 66 32 7.0 13.0 0.00 0.00 0.00 23 1022.0
20260501220038 66 284 5.0 9.0 0.00 0.00 0.00 23 1022.0
20260501215534 66 6 13.0 13.0 0.00 0.00 0.00 23 1022.0
20260501215030 65 121 7.0 11.0 0.00 0.00 0.00 22 1022.0
20260501214525 66 38 4.0 8.0 0.00 0.00 0.00 24 1022.1
20260501214021 66 8 3.0 11.0 0.00 0.00 0.00 23 1022.1
20260501213519 67 21 12.0 16.0 0.00 0.00 0.00 23 1022.4
20260501213015 67 0 3.0 8.0 0.00 0.00 0.00 23 1022.0
20260501212511 67 6 8.0 15.0 0.00 0.00 0.00 23 1022.2
20260501212008 66 101 5.0 12.0 0.00 0.00 0.00 22 1022.1
20260501211505 66 28 6.0 9.0 0.00 0.00 0.00 23 1022.2
20260501211003 66 92 6.0 11.0 0.00 0.00 0.00 22 1022.4
20260501210458 64 204 3.0 9.0 0.00 0.00 0.00 23 1022.6
20260501205955 65 13 3.0 14.0 0.00 0.00 0.00 24 1022.2
20260501205452 64 308 11.0 11.0 0.00 0.00 0.00 24 1022.4
20260501204950 66 316 6.0 10.0 0.00 0.00 0.00 23 1022.4
20260501204445 65 227 3.0 7.0 0.00 0.00 0.00 24 1022.5
20260501203942 64 313 2.0 7.0 0.00 0.00 0.00 22 1022.6
20260501203439 65 295 3.0 6.0 0.00 0.00 0.00 22 1022.5
20260501202937 64 61 4.0 6.0 0.00 0.00 0.00 22 1022.5
20260501202433 64 349 3.0 11.0 0.00 0.00 0.00 24 1022.5
20260501201929 64 44 6.0 9.0 0.00 0.00 0.00 23 1022.7
20260501201427 63 289 2.0 10.0 0.00 0.00 0.00 25 1022.6
20260501200923 64 18 3.0 8.0 0.00 0.00 0.00 22 1022.6
20260501200420 64 348 2.0 13.0 0.00 0.00 0.00 23 1022.7
20260501195918 64 9 8.0 13.0 0.00 0.00 0.00 24 1022.4
20260501195415 64 0 4.0 13.0 0.00 0.00 0.00 24 1022.7
20260501194910 63 175 4.0 12.0 0.00 0.00 0.00 24 1022.8
20260501194406 63 34 3.0 13.0 0.00 0.00 0.00 24 1022.7
20260501193902 64 7 4.0 9.0 0.00 0.00 0.00 25 1022.9
20260501193401 63 17 8.0 9.0 0.00 0.00 0.00 22 1022.9
20260501192858 64 29 9.0 14.0 0.00 0.00 0.00 23 1022.8
20260501192355 62 345 5.0 9.0 0.00 0.00 0.00 24 1022.8
20260501191852 63 326 12.0 14.0 0.00 0.00 0.00 26 1022.8
20260501191349 63 23 5.0 11.0 0.00 0.00 0.00 24 1022.8
20260501190846 63 336 7.0 9.0 0.00 0.00 0.00 24 1023.0
20260501190342 63 351 8.0 11.0 0.00 0.00 0.00 24 1022.9
20260501185837 63 56 4.0 14.0 0.00 0.00 0.00 26 1022.9
20260501185334 62 333 11.0 14.0 0.00 0.00 0.00 25 1023.0
20260501184829 61 302 1.0 14.0 0.00 0.00 0.00 22 1023.3
20260501184325 63 71 6.0 8.0 0.00 0.00 0.00 22 1023.2
20260501183821 61 79 4.0 9.0 0.00 0.00 0.00 23 1023.0
20260501183319 62 10 8.0 10.0 0.00 0.00 0.00 24 1023.4
20260501182815 61 317 4.0 9.0 0.00 0.00 0.00 24 1023.4
20260501182312 63 72 4.0 9.0 0.00 0.00 0.00 23 1023.6
20260501181809 62 76 4.0 13.0 0.00 0.00 0.00 22 1023.6
20260501181306 62 59 3.0 8.0 0.00 0.00 0.00 25 1023.4
20260501180803 60 272 2.0 7.0 0.00 0.00 0.00 27 1023.4
20260501180259 60 341 11.0 19.0 0.00 0.00 0.00 27 1023.4
20260501175756 60 359 4.0 9.0 0.00 0.00 0.00 28 1023.6
20260501175253 60 287 7.0 9.0 0.00 0.00 0.00 26 1023.6
20260501174749 61 8 3.0 7.0 0.00 0.00 0.00 27 1023.6
20260501174247 59 356 8.0 11.0 0.00 0.00 0.00 28 1024.0
20260501173745 59 341 4.0 10.0 0.00 0.00 0.00 30 1023.7
20260501173241 59 275 4.0 15.0 0.00 0.00 0.00 29 1023.5
20260501172737 59 317 9.0 12.0 0.00 0.00 0.00 30 1023.6
20260501172233 59 352 5.0 8.0 0.00 0.00 0.00 30 1023.8
20260501171729 59 193 4.0 11.0 0.00 0.00 0.00 29 1023.8
20260501171226 59 42 5.0 9.0 0.00 0.00 0.00 28 1024.0
20260501170723 59 60 3.0 5.0 0.00 0.00 0.00 28 1023.8
20260501170220 59 347 4.0 7.0 0.00 0.00 0.00 29 1023.7
20260501165717 59 65 5.0 7.0 0.00 0.00 0.00 28 1023.8
20260501165214 58 66 4.0 11.0 0.00 0.00 0.00 30 1023.7
20260501164712 57 89 3.0 9.0 0.00 0.00 0.00 32 1023.8
20260501164209 59 47 2.0 8.0 0.00 0.00 0.00 32 1023.7
20260501163705 57 275 2.0 7.0 0.00 0.00 0.00 33 1023.7
20260501163202 59 356 7.0 8.0 0.00 0.00 0.00 31 1023.8
20260501162658 58 255 2.0 5.0 0.00 0.00 0.00 31 1023.7
20260501162155 59 108 3.0 8.0 0.00 0.00 0.00 31 1023.5
20260501161652 57 44 3.0 8.0 0.00 0.00 0.00 33 1023.6
20260501161149 58 298 0.0 5.0 0.00 0.00 0.00 35 1023.7
20260501160646 58 149 5.0 8.0 0.00 0.00 0.00 34 1023.7
20260501160143 57 180 1.0 3.0 0.00 0.00 0.00 34 1023.7
20260501155639 58 44 2.0 4.0 0.00 0.00 0.00 36 1023.7
20260501155137 56 138 4.0 7.0 0.00 0.00 0.00 36 1023.6
20260501154634 56 71 3.0 5.0 0.00 0.00 0.00 37 1023.3
20260501154131 56 82 7.0 10.0 0.00 0.00 0.00 37 1023.7
20260501153628 56 163 1.0 7.0 0.00 0.00 0.00 37 1023.5
20260501153125 56 84 4.0 6.0 0.00 0.00 0.00 36 1023.6
20260501152621 56 33 4.0 5.0 0.00 0.00 0.00 37 1023.5
20260501152119 54 68 3.0 7.0 0.00 0.00 0.00 39 1023.5
20260501151615 54 121 3.0 6.0 0.00 0.00 0.00 38 1023.5
20260501151112 54 119 3.0 8.0 0.00 0.00 0.00 38 1023.4
20260501150609 55 128 2.0 3.0 0.00 0.00 0.00 39 1023.6
20260501150105 54 106 3.0 6.0 0.00 0.00 0.00 39 1023.4
20260501145601 54 78 5.0 6.0 0.00 0.00 0.00 39 1023.4
20260501145059 54 74 2.0 5.0 0.00 0.00 0.00 39 1023.6
20260501144555 53 43 3.0 5.0 0.00 0.00 0.00 39 1023.4
20260501144050 55 62 1.0 3.0 0.00 0.00 0.00 38 1023.3
20260501143547 54 118 3.0 3.0 0.00 0.00 0.00 41 1023.4
20260501143044 52 178 1.0 4.0 0.00 0.00 0.00 40 1023.4
20260501142541 53 135 2.0 4.0 0.00 0.00 0.00 41 1023.2
20260501142037 50 116 0.0 5.0 0.00 0.00 0.00 43 1023.4
20260501141533 51 131 3.0 3.0 0.00 0.00 0.00 43 1023.3
20260501141031 50 98 2.0 6.0 0.00 0.00 0.00 43 1023.3
20260501140527 50 115 1.0 5.0 0.00 0.00 0.00 44 1023.3
20260501140023 50 144 2.0 4.0 0.00 0.00 0.00 43 1023.2
20260501135520 48 137 2.0 3.0 0.00 0.00 0.00 45 1023.2
20260501135018 48 155 3.0 3.0 0.00 0.00 0.00 45 1023.0
20260501134514 48 138 2.0 3.0 0.00 0.00 0.00 47 1023.0